[[{"header":{"parameterUnit":"m.s-1","parameterCategory":2,"la1":30.2991,"la2":30.254,"lo1":-89.0895,"lo2":-89.0444,"dy":0.0017,"dx":0.0017,"nx":28,"ny":28,"refTime":"2025-08-19T09:00:00:Z","depth":"0","parameterNumber":2,"parameterNumberName":"U-component_of_CURRENTS"},"data":[0,0,0,0,0,0,0,0,0,0,0,0,0,0,0,0,0,0,0,0,0,0,0,0,0,0,0,0,0,0,0,0,0,0,0,0,0,0,0,0,0,0,0,0,0,0,0,0,0,0,0,0,0,0,0,0,0,0,-0.2118,-0.2119,0,-0.2162,-0.2163,-0.2163,-0.2135,-0.2134,-0.2133,-0.2133,-0.1985,-0.1982,-0.1979,0,0,0,0,0,0,0,0,0,0,0,0,0,-0.202,-0.2021,-0.2118,-0.2119,-0.212,-0.2162,-0.2163,-0.2163,-0.2135,-0.2134,-0.2133,-0.2132,-0.1986,-0.1983,-0.1979,0,0,0,0,0,0,0,0,0,0,0,0,0,-0.2058,-0.2022,-0.2118,-0.2115,-0.2116,-0.2162,-0.2163,-0.2163,-0.2135,-0.2134,-0.2133,-0.2132,-0.1988,-0.1983,-0.1978,-0.1974,0,0,-0.1964,-0.1962,0,0,0,0,0,0,0,0,-0.2056,-0.2061,-0.2114,-0.2115,-0.2116,-0.2146,-0.2075,-0.2092,-0.2136,-0.2123,-0.2133,-0.2131,-0.2026,-0.2018,-0.2024,-0.1967,-0.1961,-0.1964,-0.1961,-0.1959,-0.1957,0,0,0,0,0,0,0,-0.2054,-0.2059,-0.213,-0.2116,-0.2117,-0.2116,-0.2119,-0.2078,-0.2073,-0.2124,-0.2123,-0.2136,-0.2024,-0.2029,-0.202,-0.1959,-0.1964,-0.196,-0.1957,-0.1955,-0.1818,-0.1818,0,0,0,0,0,0,-0.206,-0.2057,-0.2129,-0.2132,-0.2088,-0.2119,-0.2123,-0.2134,-0.2078,-0.2071,-0.2138,-0.2135,-0.2038,-0.2026,-0.2015,-0.1976,-0.1959,-0.1954,-0.1952,-0.1819,-0.1818,-0.1817,0,0,0,0,0,0,-0.2057,-0.2066,-0.2127,-0.21,-0.2108,-0.2122,-0.2135,-0.2135,-0.2142,-0.2091,-0.2079,-0.2145,-0.2036,-0.2021,-0.1974,-0.197,-0.1952,-0.1948,-0.182,-0.1819,-0.1818,-0.1916,0,0,0,0,0,0,-0.2054,-0.2064,-0.2065,-0.21,-0.211,-0.2156,-0.2137,-0.2137,-0.2155,-0.2152,-0.2093,-0.2079,-0.2034,-0.1982,-0.197,-0.1963,-0.1944,-0.1821,-0.182,-0.1818,-0.1914,-0.1918,-0.1922,0,0,0,0,0,-0.205,-0.2065,-0.2065,-0.2073,-0.2114,-0.2158,-0.2162,-0.2164,-0.2157,-0.2164,-0.2119,-0.2081,-0.1962,-0.1978,-0.1964,-0.1956,-0.1822,-0.182,-0.1818,-0.1912,-0.1917,-0.1922,0,0,0,0,0,0,-0.2018,-0.2066,-0.2065,-0.2091,-0.2121,-0.2155,-0.2167,-0.2173,-0.215,-0.2138,-0.2082,-0.2065,-0.2015,-0.1971,-0.199,-0.1908,-0.1881,-0.1876,-0.1957,-0.1961,-0.1965,-0.1968,-0.194,0,0,0,0,0,-0.2015,-0.2032,-0.208,-0.2094,-0.2119,-0.2144,-0.216,-0.2167,-0.2162,-0.2153,-0.2111,-0.2053,-0.1999,-0.1971,-0.1915,-0.1884,-0.189,-0.1863,-0.1867,-0.1871,-0.1861,-0.189,-0.1898,-0.1811,-0.1811,-0.1812,0,0,-0.2,-0.2031,-0.2036,-0.2087,-0.2112,-0.2148,-0.2149,-0.2183,-0.2187,-0.2136,-0.2112,-0.2066,-0.1991,-0.195,-0.1923,-0.1914,-0.1905,-0.1869,-0.1874,-0.186,-0.1889,-0.1899,-0.1907,-0.181,-0.181,-0.1811,0,0,-0.2009,-0.2018,-0.2053,-0.2084,-0.2136,-0.2149,-0.2164,-0.2201,-0.2191,-0.2176,-0.2129,-0.2093,-0.2014,-0.1973,-0.1937,-0.193,-0.1923,-0.19,-0.1931,-0.1962,-0.197,-0.1978,-0.2038,-0.205,-0.1907,-0.1908,-0.1908,0,-0.199,-0.2035,-0.2066,-0.2116,-0.2133,-0.2154,-0.2189,-0.2191,-0.2195,-0.2189,-0.2167,-0.2086,-0.2024,-0.1986,-0.1968,-0.1942,-0.1968,-0.1929,-0.1973,-0.198,-0.1986,-0.2046,-0.2058,-0.1912,-0.1912,-0.1911,-0.1911,0,-0.2037,-0.2067,-0.2093,-0.2149,-0.2171,-0.2201,-0.2222,-0.2226,-0.2212,-0.2213,-0.2181,-0.2123,-0.2074,-0.2049,-0.1996,-0.1998,-0.2009,-0.1981,-0.1976,-0.2002,-0.2062,-0.2073,-0.1919,-0.1917,-0.1916,-0.1915,0,0,-0.1988,-0.2105,-0.2105,-0.2137,-0.2186,-0.2209,-0.2218,-0.2237,-0.2246,-0.2232,-0.2243,-0.2152,-0.2141,-0.2097,-0.2052,-0.2065,-0.2132,-0.2037,-0.2036,-0.2125,-0.2234,-0.2072,-0.2069,-0.2126,-0.2128,-0.2129,-0.2276,0,-0.2005,-0.2102,-0.2142,-0.2186,-0.223,-0.2245,-0.225,-0.2262,-0.2258,-0.2272,-0.2238,-0.2216,-0.2155,-0.2138,-0.2144,-0.212,-0.2157,-0.2096,-0.2167,-0.217,-0.2046,-0.2073,-0.1916,-0.2016,-0.2286,-0.2288,-0.2289,0,-0.2026,-0.2083,-0.2154,-0.2214,-0.2232,-0.2248,-0.2261,-0.2274,-0.2297,-0.2299,-0.2302,-0.2283,-0.2276,-0.2228,-0.2252,-0.2221,-0.2225,-0.2227,-0.2233,-0.2044,-0.2025,-0.202,-0.2025,-0.2004,-0.2306,-0.2305,-0.2303,0,-0.1978,-0.2074,-0.2123,-0.2145,-0.2223,-0.2231,-0.225,-0.2276,-0.2292,-0.2323,-0.2347,-0.2353,-0.2349,-0.2364,-0.233,-0.2307,-0.2382,-0.2359,-0.2242,-0.2234,-0.2087,-0.206,-0.209,-0.2401,-0.2401,-0.24,-0.24,0,-0.1973,-0.2002,-0.2105,-0.213,-0.2155,-0.2211,-0.2235,-0.2258,-0.2309,-0.2329,-0.2353,-0.2366,-0.2377,-0.2407,-0.2391,-0.2338,-0.244,-0.2245,-0.2246,-0.2115,-0.209,-0.2048,-0.2072,-0.2406,-0.2405,-0.2404,-0.2403,0,-0.1917,-0.1996,-0.2047,-0.2126,-0.2145,-0.2154,-0.2225,-0.2251,-0.2302,-0.2337,-0.2349,-0.2397,-0.2395,-0.2421,-0.2448,-0.2388,-0.232,-0.2344,-0.2192,-0.2166,-0.1952,-0.1986,-0.2008,-0.1955,-0.2231,-0.2228,-0.2225,0,-0.1906,-0.1936,-0.2023,-0.2045,-0.2077,-0.2116,-0.2147,-0.2221,-0.2252,-0.2331,-0.234,-0.237,-0.2314,-0.2316,-0.2237,-0.221,-0.2226,-0.2065,-0.1942,-0.1907,-0.1951,-0.1991,-0.1949,-0.184,-0.1834,-0.183,-0.1826,0,-0.1853,-0.1885,-0.1926,-0.1979,-0.2013,-0.2056,-0.2104,-0.2127,-0.2205,-0.2216,-0.2207,-0.2172,-0.2142,-0.1988,-0.1949,-0.1915,-0.1966,-0.1959,-0.1975,-0.1666,-0.1664,-0.1623,-0.1821,-0.1784,-0.1788,-0.1791,-0.1793,-0.1795,-0.1784,-0.1792,-0.1849,-0.188,-0.1929,-0.1947,-0.191,-0.1965,-0.1955,-0.1909,-0.1997,-0.188,-0.181,-0.1665,-0.1644,-0.1524,-0.163,-0.1459,-0.1525,-0.1586,-0.1438,-0.1525,-0.1427,-0.1429,-0.1431,-0.1433,-0.1434,0,-0.1674,-0.1706,-0.1747,-0.1772,-0.1775,-0.1833,-0.1837,-0.1762,-0.1661,-0.1674,-0.1595,-0.1491,-0.1333,-0.1319,-0.1204,-0.1133,-0.1144,-0.1139,-0.1196,-0.1187,-0.1303,-0.1179,-0.0956,-0.0956,-0.0956,-0.0956,-0.0956,-0.0956,-0.1617,-0.161,-0.1637,-0.1594,-0.1609,-0.1505,-0.1454,-0.1363,-0.1314,-0.1168,-0.1109,-0.1121,-0.1132,-0.1157,-0.1046,-0.0989,-0.1021,-0.0959,-0.1059,-0.1166,-0.1203,-0.1238,-0.1125,-0.0895,-0.0895,-0.0859,-0.0859,-0.0859]},{"header":{"parameterUnit":"m.s-1","parameterCategory":2,"la1":30.2991,"la2":30.254,"lo1":-89.0895,"lo2":-89.0444,"dy":0.0017,"dx":0.0017,"nx":28,"ny":28,"refTime":"2025-08-19T09:00:00:Z","depth":"0","parameterNumber":3,"parameterNumberName":"V-component_of_CURRENTS"},"data":[0,0,0,0,0,0,0,0,0,0,0,0,0,0,0,0,0,0,0,0,0,0,0,0,0,0,0,0,0,0,0,0,0,0,0,0,0,0,0,0,0,0,0,0,0,0,0,0,0,0,0,0,0,0,0,0,0,0,-0.0603,-0.0601,0,-0.0439,-0.0437,-0.0434,-0.0347,-0.0347,-0.0347,-0.0347,-0.0207,-0.0203,-0.0199,0,0,0,0,0,0,0,0,0,0,0,0,0,-0.0597,-0.0599,-0.0603,-0.0601,-0.0599,-0.0439,-0.0436,-0.0434,-0.0347,-0.0347,-0.0347,-0.0347,-0.0208,-0.0203,-0.0199,0,0,0,0,0,0,0,0,0,0,0,0,0,-0.053,-0.0599,-0.0603,-0.0539,-0.0532,-0.044,-0.0436,-0.0433,-0.0346,-0.0347,-0.0347,-0.0347,-0.021,-0.0204,-0.0198,-0.0157,0,0,-0.018,-0.0178,0,0,0,0,0,0,0,0,-0.0534,-0.053,-0.0551,-0.0544,-0.0536,-0.0417,-0.0383,-0.0343,-0.0346,-0.0413,-0.0347,-0.0347,-0.0282,-0.027,-0.0232,-0.015,-0.0144,-0.018,-0.0176,-0.0174,-0.0172,0,0,0,0,0,0,0,-0.0539,-0.0535,-0.0534,-0.0549,-0.054,-0.0436,-0.0428,-0.0373,-0.0345,-0.0407,-0.0401,-0.0389,-0.0277,-0.0238,-0.0229,-0.0142,-0.018,-0.0175,-0.0171,-0.0169,-0.0041,-0.0042,0,0,0,0,0,0,-0.058,-0.0541,-0.0539,-0.0529,-0.054,-0.0437,-0.0428,-0.0451,-0.0345,-0.033,-0.0389,-0.0386,-0.0248,-0.0236,-0.0224,-0.0183,-0.0174,-0.0168,-0.0165,-0.0041,-0.0042,-0.0042,0,0,0,0,0,0,-0.0581,-0.0583,-0.0546,-0.0531,-0.052,-0.0439,-0.0464,-0.0448,-0.041,-0.0332,-0.0317,-0.0368,-0.0248,-0.0232,-0.0168,-0.0177,-0.0166,-0.016,-0.0041,-0.0041,-0.0042,-0.0094,0,0,0,0,0,0,-0.0582,-0.0585,-0.0608,-0.0536,-0.0523,-0.049,-0.0464,-0.0445,-0.0404,-0.0398,-0.0309,-0.0296,-0.0247,-0.0177,-0.0162,-0.0169,-0.0156,-0.0041,-0.0041,-0.0042,-0.0092,-0.0096,-0.0099,0,0,0,0,0,-0.0583,-0.0623,-0.0611,-0.0609,-0.0561,-0.049,-0.0472,-0.041,-0.0403,-0.0378,-0.0322,-0.0299,-0.0169,-0.0171,-0.0154,-0.016,-0.0041,-0.0041,-0.0041,-0.009,-0.0095,-0.0099,0,0,0,0,0,0,-0.063,-0.0616,-0.0601,-0.0635,-0.0565,-0.0476,-0.0459,-0.0415,-0.0348,-0.0351,-0.0282,-0.0263,-0.0216,-0.0179,-0.0183,-0.0126,-0.0109,-0.0106,-0.0152,-0.0156,-0.0159,-0.0188,-0.0151,0,0,0,0,0,-0.0655,-0.0685,-0.0624,-0.0646,-0.0623,-0.0541,-0.0506,-0.0459,-0.0394,-0.0364,-0.03,-0.0247,-0.0202,-0.0173,-0.012,-0.0077,-0.0061,-0.0076,-0.008,-0.0083,-0.0096,-0.0094,-0.0099,-0.0043,-0.0043,-0.0043,0,0,-0.068,-0.0675,-0.069,-0.0656,-0.0608,-0.0558,-0.052,-0.0472,-0.0431,-0.0362,-0.0296,-0.025,-0.0193,-0.0146,-0.0124,-0.0116,-0.0084,-0.0083,-0.0086,-0.0098,-0.0095,-0.01,-0.0106,-0.0043,-0.0043,-0.0043,0,0,-0.0712,-0.0739,-0.075,-0.0696,-0.063,-0.0581,-0.0572,-0.0479,-0.0445,-0.037,-0.0328,-0.0287,-0.0194,-0.0162,-0.0137,-0.013,-0.0104,-0.012,-0.0157,-0.0155,-0.016,-0.0164,-0.0129,-0.013,-0.0122,-0.0122,-0.0122,0,-0.0736,-0.0745,-0.0731,-0.0698,-0.0664,-0.0598,-0.0562,-0.0511,-0.0403,-0.0395,-0.036,-0.0265,-0.0207,-0.0184,-0.0174,-0.014,-0.0126,-0.0144,-0.0161,-0.0165,-0.0169,-0.0132,-0.0132,-0.0125,-0.0124,-0.0124,-0.0124,0,-0.0751,-0.0737,-0.0736,-0.0691,-0.0653,-0.0612,-0.0547,-0.0513,-0.0474,-0.0424,-0.0387,-0.0307,-0.0261,-0.0238,-0.0193,-0.0198,-0.0174,-0.0167,-0.0155,-0.0178,-0.0137,-0.0136,-0.0128,-0.0127,-0.0127,-0.0126,0,0,-0.0848,-0.0766,-0.076,-0.0729,-0.0646,-0.0621,-0.0585,-0.054,-0.0547,-0.0455,-0.0457,-0.0369,-0.0347,-0.0318,-0.0271,-0.0259,-0.0247,-0.0225,-0.0224,-0.0198,-0.0224,-0.0122,-0.0111,-0.0251,-0.0252,-0.0253,-0.0176,0,-0.0849,-0.0799,-0.0762,-0.0708,-0.0672,-0.0625,-0.0605,-0.0567,-0.0535,-0.0519,-0.0473,-0.0442,-0.0373,-0.036,-0.0338,-0.0278,-0.0252,-0.0267,-0.0198,-0.0195,-0.011,-0.011,-0.0072,0.0005,-0.0175,-0.0175,-0.0175,0,-0.0869,-0.0826,-0.0775,-0.0725,-0.0716,-0.0686,-0.069,-0.0656,-0.0635,-0.0615,-0.0591,-0.0548,-0.0506,-0.0453,-0.0367,-0.0383,-0.0307,-0.0255,-0.0251,-0.0143,-0.0094,-0.0004,0.0013,0.0142,-0.0174,-0.0174,-0.0174,0,-0.0932,-0.0852,-0.0823,-0.079,-0.0717,-0.0723,-0.0709,-0.0691,-0.0697,-0.0681,-0.0691,-0.0636,-0.0613,-0.053,-0.0383,-0.039,-0.0286,-0.0285,-0.012,-0.011,-0.0057,-0.0042,0.0082,-0.0234,-0.0234,-0.0234,-0.0234,0,-0.0953,-0.0929,-0.0851,-0.082,-0.0832,-0.0775,-0.0805,-0.0791,-0.0787,-0.0811,-0.0746,-0.0752,-0.0636,-0.0551,-0.0422,-0.0248,-0.0309,-0.0123,-0.009,-0.0068,-0.0056,0.0076,0.0117,-0.0231,-0.0232,-0.0232,-0.0233,0,-0.1007,-0.095,-0.0911,-0.0847,-0.0846,-0.0857,-0.0859,-0.0883,-0.087,-0.0902,-0.0901,-0.0846,-0.0722,-0.0565,-0.0418,-0.0292,-0.0044,-0.0058,-0.0013,0.0025,0.0289,0.0325,0.0479,0.056,0.011,0.0113,0.0116,0,-0.1024,-0.0998,-0.0943,-0.0946,-0.0916,-0.0925,-0.0941,-0.0926,-0.0949,-0.0954,-0.0977,-0.0879,-0.0783,-0.0498,-0.0263,-0.0005,0.0086,0.0175,0.017,0.032,0.0383,0.0406,0.0463,0.0227,0.023,0.0232,0.0234,0,-0.1038,-0.102,-0.0987,-0.099,-0.1003,-0.1021,-0.1039,-0.1071,-0.1064,-0.1063,-0.1035,-0.0955,-0.0685,-0.0385,-0.0041,0.011,0.0278,0.0237,0.0357,0.0464,0.0527,0.0615,0.0183,0.0257,0.0255,0.0253,0.0252,0.0251,-0.1055,-0.105,-0.1015,-0.1034,-0.1058,-0.1095,-0.1109,-0.1126,-0.1134,-0.1104,-0.1046,-0.0861,-0.047,0.002,0.0184,0.0542,0.0488,0.0639,0.0665,0.0673,0.0766,0.0417,0.0552,0.0552,0.0551,0.0551,0.055,0,-0.1047,-0.105,-0.1066,-0.1075,-0.1115,-0.1115,-0.1154,-0.1146,-0.1135,-0.1048,-0.0948,-0.0479,-0.0074,0.0289,0.0771,0.0954,0.0964,0.1034,0.1048,0.108,0.0743,0.0766,0.0995,0.0995,0.0994,0.0994,0.0994,0.0994,-0.104,-0.1046,-0.1054,-0.1109,-0.113,-0.1139,-0.1148,-0.1131,-0.1053,-0.0817,-0.0544,-0.0333,0.0182,0.0856,0.1271,0.1308,0.1432,0.1426,0.1497,0.1237,0.12,0.1165,0.1198,0.1514,0.1515,0.1821,0.1824,0.1826]}],[{"header":{"parameterUnit":"m.s-1","parameterCategory":2,"la1":30.2991,"la2":30.254,"lo1":-89.0895,"lo2":-89.0444,"dy":0.0017,"dx":0.0017,"nx":28,"ny":28,"refTime":"2025-08-19T09:00:00:Z","depth":"2","parameterNumber":2,"parameterNumberName":"U-component_of_CURRENTS"},"data":[0,0,0,0,0,0,0,0,0,0,0,0,0,0,0,0,0,0,0,0,0,0,0,0,0,0,0,0,0,0,0,0,0,0,0,0,0,0,0,0,0,0,0,0,0,0,0,0,0,0,0,0,0,0,0,0,0,0,-0.1835,-0.1836,0,-0.1975,-0.1977,-0.1979,-0.2035,-0.2034,-0.2033,-0.2033,-0.2145,-0.2148,-0.2152,0,0,0,0,0,0,0,0,0,0,0,0,0,-0.1639,-0.1642,-0.1835,-0.1836,-0.1838,-0.1975,-0.1977,-0.1979,-0.2035,-0.2034,-0.2033,-0.2033,-0.2144,-0.2148,-0.2152,0,0,0,0,0,0,0,0,0,0,0,0,0,-0.1748,-0.1643,-0.1835,-0.188,-0.1886,-0.1974,-0.1977,-0.198,-0.2035,-0.2034,-0.2033,-0.2032,-0.2142,-0.2148,-0.2153,-0.2202,0,0,-0.2169,-0.2171,0,0,0,0,0,0,0,0,-0.1742,-0.1756,-0.1872,-0.1877,-0.1884,-0.1984,-0.1949,-0.2052,-0.2035,-0.1981,-0.2033,-0.2032,-0.2088,-0.2097,-0.213,-0.2208,-0.2212,-0.2169,-0.2172,-0.2175,-0.2176,0,0,0,0,0,0,0,-0.1734,-0.175,-0.1893,-0.1874,-0.1881,-0.1902,-0.1916,-0.1969,-0.2039,-0.1985,-0.1989,-0.2001,-0.2091,-0.2124,-0.2132,-0.2214,-0.2169,-0.2174,-0.2177,-0.2179,-0.2368,-0.237,0,0,0,0,0,0,-0.1713,-0.1743,-0.1888,-0.1897,-0.1806,-0.1906,-0.1922,-0.1955,-0.2039,-0.205,-0.2002,-0.2003,-0.2116,-0.2126,-0.2136,-0.2219,-0.2175,-0.218,-0.2183,-0.2366,-0.2368,-0.237,0,0,0,0,0,0,-0.1708,-0.1725,-0.1883,-0.1819,-0.1841,-0.191,-0.1946,-0.1958,-0.204,-0.2051,-0.2062,-0.2076,-0.2116,-0.2129,-0.219,-0.2223,-0.2182,-0.2187,-0.2364,-0.2367,-0.2369,-0.2372,0,0,0,0,0,0,-0.1702,-0.1723,-0.1743,-0.1819,-0.1843,-0.1975,-0.1947,-0.1961,-0.2044,-0.2049,-0.2118,-0.2124,-0.2116,-0.2182,-0.2195,-0.2229,-0.2191,-0.2362,-0.2365,-0.2369,-0.2369,-0.2374,-0.2379,0,0,0,0,0,-0.1695,-0.1743,-0.1744,-0.1761,-0.1868,-0.1978,-0.1995,-0.2039,-0.2049,-0.2107,-0.2118,-0.2125,-0.2213,-0.2187,-0.2202,-0.2239,-0.236,-0.2364,-0.2368,-0.2367,-0.2373,-0.2379,0,0,0,0,0,0,-0.1673,-0.1755,-0.1757,-0.1827,-0.1905,-0.1987,-0.2039,-0.2078,-0.2141,-0.2142,-0.215,-0.2159,-0.2225,-0.2242,-0.2214,-0.2306,-0.2289,-0.2297,-0.2284,-0.229,-0.2294,-0.2294,-0.2195,0,0,0,0,0,-0.1672,-0.1726,-0.1808,-0.1863,-0.1908,-0.1984,-0.2034,-0.2076,-0.2135,-0.2166,-0.2184,-0.2213,-0.2252,-0.2277,-0.231,-0.2371,-0.2339,-0.2406,-0.241,-0.2414,-0.2426,-0.2378,-0.2378,-0.2384,-0.2384,-0.2384,0,0,-0.1671,-0.1725,-0.1752,-0.1861,-0.1922,-0.2,-0.2016,-0.212,-0.2171,-0.2166,-0.2224,-0.224,-0.2274,-0.2319,-0.2352,-0.2339,-0.2395,-0.2419,-0.2422,-0.2432,-0.2382,-0.2381,-0.238,-0.2387,-0.2386,-0.2386,0,0,-0.1726,-0.1759,-0.1836,-0.19,-0.2005,-0.2044,-0.209,-0.2183,-0.2218,-0.2287,-0.2275,-0.23,-0.2377,-0.2371,-0.2391,-0.2454,-0.2424,-0.2485,-0.2505,-0.2458,-0.2456,-0.2453,-0.2394,-0.2387,-0.2482,-0.2482,-0.2482,0,-0.1722,-0.1815,-0.1876,-0.1966,-0.201,-0.2072,-0.2161,-0.221,-0.2295,-0.2312,-0.2311,-0.2367,-0.2396,-0.2427,-0.2444,-0.2463,-0.2427,-0.2473,-0.2458,-0.2456,-0.2453,-0.2393,-0.2385,-0.2482,-0.2482,-0.2482,-0.2482,0,-0.1857,-0.1899,-0.1955,-0.2062,-0.2131,-0.2214,-0.2281,-0.232,-0.2352,-0.2384,-0.2429,-0.243,-0.2455,-0.2475,-0.249,-0.2498,-0.2475,-0.2466,-0.2431,-0.2452,-0.2388,-0.2379,-0.2483,-0.2483,-0.2483,-0.2483,0,0,-0.1911,-0.2022,-0.2038,-0.2067,-0.218,-0.2253,-0.2313,-0.239,-0.2403,-0.2457,-0.2461,-0.2529,-0.2512,-0.2534,-0.2527,-0.2499,-0.2452,-0.2488,-0.2485,-0.2406,-0.2335,-0.2281,-0.2266,-0.2432,-0.2431,-0.243,-0.2289,0,-0.1989,-0.2112,-0.2173,-0.2262,-0.231,-0.2354,-0.2401,-0.2465,-0.2475,-0.2473,-0.249,-0.25,-0.2542,-0.2524,-0.2514,-0.2472,-0.2433,-0.249,-0.2349,-0.2345,-0.2274,-0.2256,-0.2092,-0.195,-0.228,-0.2279,-0.2278,0,-0.2106,-0.2149,-0.2237,-0.23,-0.234,-0.2393,-0.243,-0.2494,-0.2501,-0.2516,-0.2513,-0.2496,-0.2493,-0.2491,-0.2438,-0.2472,-0.242,-0.2374,-0.2367,-0.2314,-0.2275,-0.199,-0.1921,-0.2262,-0.2263,-0.2265,-0.2266,0,-0.2074,-0.22,-0.2245,-0.2272,-0.2357,-0.2388,-0.2452,-0.2484,-0.2513,-0.2502,-0.2472,-0.2481,-0.2438,-0.2408,-0.2358,-0.2386,-0.2254,-0.2266,-0.2158,-0.2152,-0.1986,-0.1968,-0.2195,-0.2196,-0.2196,-0.2196,-0.2197,0,-0.2098,-0.2139,-0.2218,-0.2218,-0.2284,-0.2372,-0.2414,-0.246,-0.2475,-0.2451,-0.248,-0.2402,-0.2413,-0.2334,-0.2318,-0.2213,-0.2221,-0.2155,-0.2112,-0.1984,-0.1968,-0.2231,-0.2237,-0.2191,-0.2192,-0.2193,-0.2194,0,-0.2034,-0.2092,-0.2126,-0.2203,-0.2243,-0.2286,-0.2406,-0.2405,-0.2446,-0.2376,-0.2364,-0.2336,-0.2249,-0.223,-0.2138,-0.2125,-0.2045,-0.1994,-0.1846,-0.1791,-0.1983,-0.1991,-0.1862,-0.1858,-0.1856,-0.1854,-0.1852,0,-0.2019,-0.2002,-0.208,-0.2102,-0.213,-0.2215,-0.2251,-0.2366,-0.2313,-0.2295,-0.2199,-0.2141,-0.2041,-0.1941,-0.1887,-0.1821,-0.1919,-0.1637,-0.1679,-0.1976,-0.1948,-0.1961,-0.1972,-0.1442,-0.1437,-0.1433,-0.143,0,-0.1916,-0.1924,-0.1946,-0.1982,-0.202,-0.2076,-0.2097,-0.2057,-0.2103,-0.2074,-0.1959,-0.1908,-0.1796,-0.1658,-0.1601,-0.1551,-0.1656,-0.1552,-0.185,-0.158,-0.1577,-0.1552,-0.1577,-0.1393,-0.1396,-0.1399,-0.1401,-0.1403,-0.1825,-0.1819,-0.1824,-0.1869,-0.1912,-0.1864,-0.1827,-0.1813,-0.1772,-0.1648,-0.1681,-0.1588,-0.1555,-0.1399,-0.1311,-0.126,-0.1393,-0.1348,-0.1362,-0.1379,-0.1384,-0.1379,-0.1157,-0.1159,-0.1161,-0.1163,-0.1164,0,-0.1696,-0.17,-0.1722,-0.1733,-0.1695,-0.1775,-0.1672,-0.1585,-0.1464,-0.1423,-0.1372,-0.1219,-0.1118,-0.1112,-0.0962,-0.0942,-0.0943,-0.0916,-0.0915,-0.0951,-0.0983,-0.097,-0.0631,-0.063,-0.0629,-0.0627,0,0,-0.1625,-0.158,-0.16,-0.1504,-0.1512,-0.1387,-0.1288,-0.1204,-0.1119,-0.1032,-0.1001,-0.1066,-0.1073,-0.0862,-0.0803,-0.069,-0.0818,-0.0651,-0.1074,-0.1107,-0.1138,-0.122,-0.1238,0,0,0,0,0]},{"header":{"parameterUnit":"m.s-1","parameterCategory":2,"la1":30.2991,"la2":30.254,"lo1":-89.0895,"lo2":-89.0444,"dy":0.0017,"dx":0.0017,"nx":28,"ny":28,"refTime":"2025-08-19T09:00:00:Z","depth":"2","parameterNumber":3,"parameterNumberName":"V-component_of_CURRENTS"},"data":[0,0,0,0,0,0,0,0,0,0,0,0,0,0,0,0,0,0,0,0,0,0,0,0,0,0,0,0,0,0,0,0,0,0,0,0,0,0,0,0,0,0,0,0,0,0,0,0,0,0,0,0,0,0,0,0,0,0,0.0007,0.0008,0,0.0081,0.0082,0.0083,0.0152,0.0153,0.0154,0.0154,0.0391,0.0396,0.0402,0,0,0,0,0,0,0,0,0,0,0,0,0,-0.0022,-0.0022,0.0007,0.0008,0.0008,0.008,0.0082,0.0083,0.0152,0.0153,0.0154,0.0155,0.0389,0.0396,0.0402,0,0,0,0,0,0,0,0,0,0,0,0,0,0.0017,-0.0022,0.0007,0.005,0.0054,0.008,0.0082,0.0083,0.0152,0.0153,0.0154,0.0155,0.0387,0.0395,0.0403,0.0437,0,0,0.0429,0.0433,0,0,0,0,0,0,0,0,0.0015,0.0019,0.0043,0.0047,0.0052,0.0106,0.0158,0.0209,0.0152,0.0118,0.0154,0.0155,0.0308,0.0323,0.0336,0.0448,0.0458,0.043,0.0435,0.0439,0.0441,0,0,0,0,0,0,0,0.0012,0.0016,0.0039,0.0043,0.0049,0.0083,0.0089,0.0168,0.0212,0.0121,0.0125,0.0129,0.0312,0.0328,0.0343,0.0462,0.043,0.0438,0.0443,0.0446,0.0698,0.0699,0,0,0,0,0,0,-0.0006,0.0013,0.0037,0.0041,0.0032,0.0082,0.0089,0.009,0.0208,0.0224,0.0128,0.0132,0.0313,0.0333,0.0352,0.0452,0.0439,0.0447,0.0452,0.0696,0.0698,0.07,0,0,0,0,0,0,-0.0007,-0.0005,0.0034,0.0027,0.0034,0.0081,0.0081,0.0091,0.0131,0.0211,0.0232,0.0161,0.0314,0.034,0.0421,0.046,0.0451,0.0459,0.0694,0.0697,0.0699,0.062,0,0,0,0,0,0,-0.0009,-0.0006,-0.0007,0.0025,0.0033,0.0065,0.008,0.0091,0.0129,0.0135,0.0246,0.0267,0.0317,0.0407,0.0429,0.0472,0.0465,0.0692,0.0695,0.0698,0.0621,0.062,0.0619,0,0,0,0,0,-0.001,-0.0016,-0.0008,-0.0005,0.0028,0.0066,0.0074,0.0112,0.013,0.0152,0.0208,0.0265,0.0443,0.0414,0.044,0.0486,0.0691,0.0695,0.0698,0.0621,0.062,0.0619,0,0,0,0,0,0,-0.0022,-0.0009,0.0001,0.0001,0.0037,0.0077,0.0089,0.0122,0.0182,0.0187,0.027,0.0295,0.0391,0.0447,0.0414,0.057,0.0584,0.0592,0.0517,0.0516,0.0515,0.0506,0.0472,0,0,0,0,0,-0.0031,-0.0036,-0.0004,-0.0001,0.001,0.0054,0.0075,0.0102,0.0152,0.018,0.0239,0.0323,0.0422,0.0471,0.0552,0.0626,0.064,0.068,0.0679,0.0677,0.069,0.0698,0.0697,0.0711,0.0711,0.0711,0,0,-0.0036,-0.003,-0.0031,-0.0005,0.0018,0.0025,0.0071,0.0098,0.0124,0.0198,0.0242,0.0322,0.0442,0.0521,0.0572,0.0574,0.068,0.0682,0.0679,0.0693,0.0701,0.0699,0.0698,0.0714,0.0713,0.0713,0,0,-0.0063,-0.0043,-0.0063,-0.0049,-0.0022,0.0016,0.0029,0.0067,0.0112,0.017,0.0234,0.0318,0.0449,0.0522,0.059,0.0636,0.0674,0.0686,0.0671,0.0677,0.0675,0.0673,0.0667,0.0665,0.0681,0.0681,0.0681,0,-0.007,-0.0099,-0.0056,-0.008,-0.0067,0.0009,0.0005,0.0057,0.0117,0.0162,0.0181,0.0355,0.0453,0.0564,0.0595,0.0634,0.0636,0.0657,0.067,0.0669,0.0668,0.0662,0.0661,0.0677,0.0678,0.0678,0.0678,0,-0.0115,-0.0147,-0.0156,-0.016,-0.012,-0.0118,-0.0043,0.0002,0.007,0.0125,0.0238,0.0334,0.0444,0.0499,0.0579,0.0646,0.0647,0.066,0.0657,0.0661,0.0656,0.0656,0.0672,0.0674,0.0675,0.0676,0,0,-0.0122,-0.018,-0.0188,-0.0209,-0.0169,-0.0136,-0.0079,0.0009,0.0049,0.0129,0.0174,0.036,0.0409,0.049,0.0573,0.06,0.061,0.0638,0.064,0.0603,0.061,0.0609,0.0609,0.0612,0.0612,0.0612,0.0598,0,-0.0174,-0.0265,-0.0241,-0.0271,-0.0305,-0.0209,-0.0147,-0.005,0.0032,0.0084,0.0217,0.0292,0.0409,0.0447,0.0504,0.0595,0.0612,0.0612,0.064,0.0641,0.0615,0.0611,0.0603,0.059,0.0599,0.0599,0.0599,0,-0.0231,-0.0289,-0.0365,-0.0345,-0.0333,-0.0314,-0.02,-0.0133,-0.0014,0.0054,0.0139,0.0213,0.0324,0.0374,0.0513,0.0506,0.0569,0.0612,0.0612,0.0644,0.0642,0.0598,0.0591,0.0599,0.0599,0.0599,0.0599,0,-0.03,-0.035,-0.0412,-0.0426,-0.0395,-0.0359,-0.0282,-0.0157,-0.0085,-0.0003,0.0016,0.0149,0.0198,0.0298,0.0447,0.0472,0.054,0.0571,0.0614,0.0613,0.0634,0.0635,0.0624,0.0624,0.0624,0.0624,0.0624,0,-0.0382,-0.0427,-0.0462,-0.0524,-0.0507,-0.0425,-0.0365,-0.0281,-0.0178,-0.0125,-0.0016,0.0009,0.0181,0.025,0.0384,0.0507,0.0493,0.0615,0.0614,0.0607,0.0606,0.0647,0.065,0.0624,0.0624,0.0624,0.0624,0,-0.0469,-0.0508,-0.0589,-0.0596,-0.0578,-0.0556,-0.0429,-0.0376,-0.0278,-0.024,-0.0226,-0.0094,0.0014,0.0153,0.0296,0.0416,0.0521,0.0553,0.0531,0.053,0.0602,0.0602,0.0606,0.0605,0.0605,0.0605,0.0605,0,-0.0523,-0.0606,-0.0679,-0.0693,-0.0704,-0.065,-0.0593,-0.045,-0.0408,-0.0301,-0.0306,-0.0213,-0.0128,0.0078,0.0279,0.0453,0.0485,0.0535,0.0601,0.0604,0.0603,0.0602,0.0602,0.0587,0.0587,0.0587,0.0587,0,-0.0637,-0.0685,-0.0749,-0.0817,-0.08,-0.0744,-0.068,-0.0666,-0.0509,-0.0488,-0.044,-0.0381,-0.0164,0.0051,0.0281,0.0395,0.0516,0.0537,0.0531,0.0597,0.0587,0.0585,0.0586,0.0585,0.0585,0.0586,0.0586,0.0586,-0.0706,-0.0759,-0.0863,-0.0886,-0.0874,-0.084,-0.0801,-0.0747,-0.0692,-0.0619,-0.0546,-0.0404,-0.0187,0.0171,0.0325,0.0494,0.0514,0.0586,0.0587,0.0587,0.0592,0.0583,0.058,0.058,0.058,0.058,0.058,0,-0.0779,-0.0831,-0.0895,-0.0926,-0.0916,-0.0897,-0.0844,-0.0795,-0.0775,-0.0662,-0.0581,-0.0333,-0.0076,0.0153,0.0421,0.0564,0.0573,0.0586,0.0585,0.0586,0.0587,0.0591,0.058,0.058,0.058,0.058,0,0,-0.0807,-0.0901,-0.093,-0.095,-0.0957,-0.0919,-0.0895,-0.0862,-0.0766,-0.0675,-0.0526,-0.0308,-0.0033,0.0157,0.0337,0.047,0.0488,0.0477,0.0467,0.0446,0.0445,0.0579,0.0586,0,0,0,0,0]}],[{"header":{"parameterUnit":"m.s-1","parameterCategory":2,"la1":30.2991,"la2":30.254,"lo1":-89.0895,"lo2":-89.0444,"dy":0.0017,"dx":0.0017,"nx":28,"ny":28,"refTime":"2025-08-19T09:00:00:Z","depth":"4","parameterNumber":2,"parameterNumberName":"U-component_of_CURRENTS"},"data":[0,0,0,0,0,0,0,0,0,0,0,0,0,0,0,0,0,0,0,0,0,0,0,0,0,0,0,0,0,0,0,0,0,0,0,0,0,0,0,0,0,0,0,0,0,0,0,0,0,0,0,0,0,0,0,0,0,0,-0.1082,-0.1082,0,-0.1124,-0.1124,-0.1125,-0.116,-0.1161,-0.1161,-0.1161,-0.126,-0.1263,-0.1265,0,0,0,0,0,0,0,0,0,0,0,0,0,-0.1047,-0.1047,-0.1082,-0.1082,-0.1083,-0.1123,-0.1124,-0.1125,-0.116,-0.1161,-0.1161,-0.1161,-0.126,-0.1262,-0.1265,0,0,0,0,0,0,0,0,0,0,0,0,0,-0.1073,-0.1047,-0.1082,-0.1105,-0.1107,-0.1123,-0.1124,-0.1125,-0.116,-0.1161,-0.1161,-0.1162,-0.1259,-0.1262,-0.1266,-0.1278,0,0,-0.1276,-0.1278,0,0,0,0,0,0,0,0,-0.1072,-0.1075,-0.1101,-0.1103,-0.1106,-0.1136,-0.1148,-0.1179,-0.116,-0.1141,-0.1161,-0.1162,-0.1223,-0.123,-0.1237,-0.1283,-0.1287,-0.1277,-0.1279,-0.128,-0.1281,0,0,0,0,0,0,0,-0.107,-0.1073,-0.1099,-0.1101,-0.1104,-0.1117,-0.1122,-0.1154,-0.1181,-0.1143,-0.1145,-0.1148,-0.1225,-0.1233,-0.124,-0.1288,-0.1277,-0.128,-0.1282,-0.1283,-0.1427,-0.1428,0,0,0,0,0,0,-0.1062,-0.1071,-0.1098,-0.1101,-0.1089,-0.1118,-0.1122,-0.1127,-0.1179,-0.1187,-0.1148,-0.115,-0.1227,-0.1236,-0.1243,-0.1318,-0.128,-0.1284,-0.1286,-0.1425,-0.1427,-0.1429,0,0,0,0,0,0,-0.1061,-0.1064,-0.1096,-0.1086,-0.1091,-0.1117,-0.1122,-0.1127,-0.1148,-0.1182,-0.1191,-0.1164,-0.1228,-0.1239,-0.1297,-0.132,-0.1285,-0.1288,-0.1423,-0.1426,-0.1428,-0.143,0,0,0,0,0,0,-0.1059,-0.1063,-0.1071,-0.1085,-0.1091,-0.1113,-0.1122,-0.1128,-0.1148,-0.1151,-0.12,-0.1208,-0.1229,-0.1292,-0.1301,-0.1324,-0.1291,-0.1421,-0.1424,-0.1427,-0.1428,-0.1433,-0.1437,0,0,0,0,0,-0.1058,-0.1062,-0.1071,-0.1075,-0.1099,-0.1113,-0.1118,-0.1138,-0.1148,-0.1159,-0.1203,-0.1208,-0.1318,-0.1296,-0.1306,-0.1331,-0.1419,-0.1423,-0.1427,-0.1426,-0.1432,-0.1437,0,0,0,0,0,0,-0.1055,-0.1066,-0.1077,-0.1086,-0.1102,-0.1119,-0.1128,-0.1143,-0.1184,-0.1195,-0.1228,-0.1241,-0.1302,-0.132,-0.1294,-0.1384,-0.137,-0.1376,-0.1366,-0.1372,-0.1376,-0.1373,-0.1294,0,0,0,0,0,-0.1056,-0.106,-0.1077,-0.1086,-0.1092,-0.1113,-0.1124,-0.114,-0.1172,-0.119,-0.1229,-0.1276,-0.1322,-0.1349,-0.1391,-0.1437,-0.1435,-0.1462,-0.1466,-0.1469,-0.1476,-0.1485,-0.149,-0.1442,-0.1442,-0.1442,0,0,-0.106,-0.1064,-0.107,-0.1085,-0.1097,-0.1118,-0.1121,-0.114,-0.117,-0.1195,-0.1257,-0.1294,-0.134,-0.1396,-0.1425,-0.1415,-0.1483,-0.1474,-0.1476,-0.1482,-0.149,-0.1494,-0.1498,-0.1444,-0.1444,-0.1443,0,0,-0.1047,-0.1069,-0.1061,-0.1082,-0.11,-0.1123,-0.1131,-0.1162,-0.1189,-0.125,-0.1278,-0.1329,-0.1402,-0.1435,-0.1461,-0.1515,-0.1506,-0.1531,-0.1548,-0.1557,-0.156,-0.1563,-0.1561,-0.1564,-0.1531,-0.1531,-0.1531,0,-0.105,-0.1047,-0.1063,-0.1067,-0.1093,-0.1128,-0.1144,-0.1178,-0.1232,-0.1263,-0.1277,-0.1392,-0.1422,-0.1488,-0.1508,-0.1523,-0.1521,-0.1519,-0.1559,-0.1562,-0.1565,-0.1562,-0.1565,-0.1532,-0.1532,-0.1531,-0.1531,0,-0.1028,-0.1043,-0.1043,-0.1067,-0.1101,-0.1121,-0.1173,-0.1214,-0.1262,-0.1303,-0.1385,-0.1433,-0.15,-0.1517,-0.1531,-0.1575,-0.1565,-0.1559,-0.1536,-0.1569,-0.1565,-0.1568,-0.1532,-0.1532,-0.1532,-0.1532,0,0,-0.0989,-0.1019,-0.1021,-0.1045,-0.1108,-0.1134,-0.1194,-0.1256,-0.1306,-0.1371,-0.1431,-0.151,-0.1538,-0.157,-0.1591,-0.16,-0.1613,-0.1589,-0.1589,-0.157,-0.1623,-0.1518,-0.1511,-0.1608,-0.1608,-0.1609,-0.1609,0,-0.0966,-0.0974,-0.1004,-0.1052,-0.1074,-0.1145,-0.1202,-0.1274,-0.1348,-0.1419,-0.1474,-0.1547,-0.1558,-0.1591,-0.1605,-0.1617,-0.1622,-0.1613,-0.161,-0.161,-0.1498,-0.1512,-0.1612,-0.1611,-0.1612,-0.1612,-0.1612,0,-0.0925,-0.0947,-0.0973,-0.1056,-0.1073,-0.1123,-0.1236,-0.1291,-0.1397,-0.1448,-0.1526,-0.1579,-0.163,-0.1623,-0.1656,-0.1648,-0.164,-0.1638,-0.1638,-0.1541,-0.151,-0.1577,-0.1617,-0.1617,-0.1617,-0.1616,-0.1616,0,-0.0873,-0.0928,-0.0954,-0.0984,-0.108,-0.1124,-0.119,-0.1305,-0.1355,-0.147,-0.152,-0.1598,-0.1636,-0.1648,-0.1664,-0.1659,-0.1678,-0.1667,-0.1567,-0.1559,-0.1652,-0.1649,-0.1678,-0.1678,-0.1678,-0.1678,-0.1678,0,-0.0824,-0.0849,-0.0941,-0.0955,-0.102,-0.1109,-0.1175,-0.126,-0.1364,-0.1429,-0.1531,-0.1582,-0.1642,-0.1672,-0.167,-0.1624,-0.1684,-0.1569,-0.1551,-0.1654,-0.1651,-0.1653,-0.165,-0.1678,-0.1678,-0.1678,-0.1678,0,-0.0746,-0.0792,-0.0839,-0.0949,-0.0986,-0.1041,-0.1145,-0.1193,-0.1312,-0.1398,-0.1434,-0.1562,-0.1597,-0.1643,-0.166,-0.1616,-0.1593,-0.1561,-0.167,-0.1659,-0.1467,-0.1465,-0.144,-0.1436,-0.1433,-0.1431,-0.1428,0,-0.0697,-0.0705,-0.0818,-0.0837,-0.0885,-0.0963,-0.1004,-0.1143,-0.1205,-0.1375,-0.1414,-0.1501,-0.1566,-0.1512,-0.1556,-0.1536,-0.152,-0.1498,-0.148,-0.1457,-0.1443,-0.1445,-0.1447,-0.1423,-0.1422,-0.1422,-0.1421,0,-0.0607,-0.0653,-0.069,-0.0733,-0.0787,-0.0852,-0.0945,-0.0988,-0.1154,-0.1256,-0.1357,-0.1396,-0.1429,-0.1444,-0.1436,-0.1425,-0.1507,-0.1464,-0.1471,-0.1454,-0.1436,-0.1426,-0.1432,-0.141,-0.1411,-0.1412,-0.1413,0,-0.0542,-0.054,-0.0573,-0.0628,-0.0671,-0.0745,-0.0819,-0.0909,-0.0995,-0.122,-0.1232,-0.1336,-0.1419,-0.1385,-0.1382,-0.1357,-0.1334,-0.1291,-0.1306,-0.1319,-0.1277,-0.1236,-0.1129,0,0,0,0,0,-0.0475,-0.0447,-0.0454,-0.0516,-0.0565,-0.0628,-0.0767,-0.0857,-0.103,-0.107,-0.1162,-0.1198,-0.1221,-0.1263,-0.1208,-0.1303,-0.1323,-0.1233,-0.1279,-0.1349,-0.1361,-0.1323,0,0,0,0,0,0,-0.0407,-0.0399,-0.041,-0.0415,-0.0447,-0.0528,-0.0638,-0.0786,-0.0829,-0.099,-0.1003,-0.11,-0.1126,-0.1218,-0.1171,-0.118,-0.1181,-0.1284,-0.1281,-0.1342,-0.1353,-0.1363,-0.1328,0,0,0,0,0]},{"header":{"parameterUnit":"m.s-1","parameterCategory":2,"la1":30.2991,"la2":30.254,"lo1":-89.0895,"lo2":-89.0444,"dy":0.0017,"dx":0.0017,"nx":28,"ny":28,"refTime":"2025-08-19T09:00:00:Z","depth":"4","parameterNumber":3,"parameterNumberName":"V-component_of_CURRENTS"},"data":[0,0,0,0,0,0,0,0,0,0,0,0,0,0,0,0,0,0,0,0,0,0,0,0,0,0,0,0,0,0,0,0,0,0,0,0,0,0,0,0,0,0,0,0,0,0,0,0,0,0,0,0,0,0,0,0,0,0,-0.0074,-0.0075,0,-0.0096,-0.0096,-0.0096,-0.0074,-0.0073,-0.0072,-0.0071,-0.0009,-0.0008,-0.0007,0,0,0,0,0,0,0,0,0,0,0,0,0,-0.0039,-0.004,-0.0074,-0.0075,-0.0075,-0.0096,-0.0096,-0.0097,-0.0074,-0.0073,-0.0072,-0.0071,-0.0009,-0.0008,-0.0007,0,0,0,0,0,0,0,0,0,0,0,0,0,-0.0057,-0.004,-0.0074,-0.0066,-0.0066,-0.0096,-0.0096,-0.0097,-0.0074,-0.0073,-0.0071,-0.007,-0.0009,-0.0008,-0.0007,-0.0024,0,0,-0.0003,-0.0002,0,0,0,0,0,0,0,0,-0.0056,-0.0058,-0.0067,-0.0067,-0.0067,-0.0081,-0.0061,-0.0068,-0.0074,-0.007,-0.0071,-0.007,-0.0026,-0.0024,-0.0031,-0.0021,-0.0018,-0.0002,-0.0002,-0.0001,-0.0001,0,0,0,0,0,0,0,-0.0054,-0.0057,-0.0082,-0.0068,-0.0067,-0.0071,-0.0072,-0.0063,-0.0053,-0.0071,-0.0069,-0.0073,-0.0025,-0.0032,-0.0029,-0.0017,-0.0003,-0.0001,-0.0001,-0.0,0.0004,0.0003,0,0,0,0,0,0,-0.0053,-0.0056,-0.0082,-0.0083,-0.0058,-0.0072,-0.0073,-0.0077,-0.0055,-0.0051,-0.0074,-0.0072,-0.0035,-0.0031,-0.0027,-0.0032,-0.0001,0.0,0.0001,0.0005,0.0004,0.0003,0,0,0,0,0,0,-0.0052,-0.0055,-0.0081,-0.007,-0.0074,-0.0074,-0.0079,-0.0079,-0.008,-0.0059,-0.0053,-0.0075,-0.0034,-0.0028,-0.0018,-0.003,0.0001,0.0002,0.0005,0.0004,0.0003,-0.0051,0,0,0,0,0,0,-0.0051,-0.0055,-0.0057,-0.007,-0.0074,-0.0104,-0.008,-0.008,-0.0084,-0.0082,-0.0058,-0.0051,-0.0033,-0.0021,-0.0017,-0.0027,0.0003,0.0006,0.0005,0.0004,-0.0049,-0.0054,-0.0059,0,0,0,0,0,-0.005,-0.0064,-0.0058,-0.0061,-0.0078,-0.0105,-0.0108,-0.0104,-0.0086,-0.0097,-0.0075,-0.0051,-0.0026,-0.002,-0.0016,-0.0026,0.0007,0.0005,0.0004,-0.0046,-0.0053,-0.0059,0,0,0,0,0,0,-0.0049,-0.0063,-0.0056,-0.0073,-0.0088,-0.0102,-0.0113,-0.0106,-0.0101,-0.0091,-0.0062,-0.0055,-0.0052,-0.0033,-0.0027,-0.0029,-0.0005,-0.0006,-0.0045,-0.0051,-0.0056,-0.0046,0.0004,0,0,0,0,0,-0.0051,-0.0065,-0.0078,-0.0091,-0.0101,-0.0105,-0.0114,-0.0112,-0.011,-0.0107,-0.009,-0.007,-0.0059,-0.0048,-0.0039,-0.004,0.0008,-0.0043,-0.0048,-0.0053,-0.0042,0.0013,0.0015,-0.0002,-0.0002,-0.0002,0,0,-0.0052,-0.0064,-0.007,-0.0092,-0.0103,-0.013,-0.0108,-0.0127,-0.0141,-0.01,-0.0109,-0.009,-0.0064,-0.0068,-0.0064,-0.0049,-0.0023,-0.0054,-0.0058,-0.0045,0.0012,0.0014,0.0015,-0.0003,-0.0003,-0.0003,0,0,-0.0082,-0.0076,-0.0105,-0.0121,-0.0142,-0.0146,-0.0152,-0.0166,-0.0162,-0.0172,-0.0144,-0.0126,-0.0118,-0.0099,-0.0087,-0.0113,-0.0055,-0.0115,-0.0127,-0.0075,-0.0073,-0.007,-0.0005,0.0004,-0.0113,-0.0113,-0.0113,0,-0.0082,-0.012,-0.0118,-0.0154,-0.0168,-0.0155,-0.0189,-0.0192,-0.0198,-0.0188,-0.018,-0.0149,-0.0132,-0.0116,-0.0127,-0.0123,-0.0077,-0.0108,-0.008,-0.0077,-0.0073,-0.0007,0.0004,-0.0116,-0.0116,-0.0115,-0.0115,0,-0.0139,-0.0167,-0.0187,-0.0223,-0.0236,-0.0263,-0.0265,-0.0268,-0.0255,-0.0246,-0.0228,-0.0202,-0.0175,-0.0176,-0.016,-0.0131,-0.0101,-0.0096,-0.0063,-0.0074,-0.0004,0.0008,-0.012,-0.0119,-0.0118,-0.0117,0,0,-0.0144,-0.0215,-0.0221,-0.0249,-0.0272,-0.0291,-0.0305,-0.0311,-0.0303,-0.0294,-0.0276,-0.026,-0.0224,-0.0207,-0.0181,-0.0138,-0.0079,-0.0108,-0.0104,-0.0039,0.0053,0.0021,0.0032,-0.0067,-0.0065,-0.0064,0.0092,0,-0.019,-0.0275,-0.0288,-0.0348,-0.0386,-0.0371,-0.0384,-0.0377,-0.0352,-0.0331,-0.0284,-0.026,-0.0242,-0.0222,-0.0179,-0.01,-0.005,-0.0121,0.0052,0.0058,0.0034,0.0043,-0.0059,0.0102,0.0105,0.0107,0.0108,0,-0.0239,-0.029,-0.0366,-0.0412,-0.0424,-0.0449,-0.0441,-0.0451,-0.0405,-0.0383,-0.0335,-0.0284,-0.0217,-0.0206,-0.0063,-0.0106,-0.003,0.003,0.0038,0.0038,0.0047,0.0116,0.0131,0.0129,0.0127,0.0126,0.0125,0,-0.0254,-0.0337,-0.0399,-0.0417,-0.0466,-0.0481,-0.0494,-0.0464,-0.0458,-0.0402,-0.037,-0.0286,-0.023,-0.0129,-0.0011,-0.0023,0.0151,0.0151,0.0198,0.0198,0.0206,0.0202,0.0253,0.0253,0.0253,0.0252,0.0252,0,-0.0293,-0.0339,-0.0415,-0.0448,-0.0501,-0.0513,-0.0533,-0.0527,-0.0494,-0.047,-0.0394,-0.0341,-0.0207,-0.0093,0.0004,0.014,0.0169,0.0209,0.0235,0.0179,0.0169,0.0216,0.0209,0.0258,0.0257,0.0256,0.0255,0,-0.0297,-0.0352,-0.0427,-0.0496,-0.0517,-0.0551,-0.058,-0.0577,-0.0544,-0.0503,-0.0481,-0.0359,-0.0211,-0.0078,0.0102,0.0161,0.0288,0.0324,0.0268,0.0286,0.0306,0.0294,0.0415,0.0415,0.0415,0.0416,0.0416,0,-0.0312,-0.0355,-0.0456,-0.0503,-0.054,-0.0589,-0.061,-0.0609,-0.0594,-0.0509,-0.0479,-0.0334,-0.0243,-0.0001,0.0122,0.0312,0.0318,0.0391,0.0335,0.0309,0.0323,0.0311,0.03,0.0416,0.0416,0.0416,0.0416,0,-0.0329,-0.0366,-0.0427,-0.052,-0.0573,-0.0618,-0.0645,-0.0644,-0.0611,-0.0578,-0.0458,-0.0328,-0.0166,0.0003,0.0141,0.027,0.0348,0.0393,0.0393,0.0342,0.0311,0.0322,0.0311,0.0416,0.0416,0.0416,0.0416,0,-0.0331,-0.0371,-0.045,-0.0527,-0.059,-0.0621,-0.0649,-0.0624,-0.0608,-0.0519,-0.0477,-0.0306,-0.0203,-0.0017,0.0113,0.023,0.0257,0.0285,0.0292,0.0293,0.0187,0.0125,0.0208,0,0,0,0,0,-0.0326,-0.0366,-0.0445,-0.0532,-0.0591,-0.0622,-0.0647,-0.0658,-0.0629,-0.055,-0.0517,-0.0368,-0.0158,-0.0058,0.0057,0.0104,0.0265,0.0239,0.0298,0.0419,0.0418,0.0308,0,0,0,0,0,0,-0.0325,-0.039,-0.0433,-0.0506,-0.0558,-0.0608,-0.0627,-0.0622,-0.0577,-0.0533,-0.042,-0.0349,-0.0147,-0.022,0.0059,0.0096,0.0146,0.0342,0.0344,0.0419,0.0418,0.0418,0.0304,0,0,0,0,0]}]]